Weather in Novonikol'skoe

Russia / Tambov Oblast     52°49′27″N   40°23′46″E
temp.,
°C
wind,
m/s
gust,
m/s
humid.,
%
clouds,
%
prec.,
mm/h
press.,
hPa
HPBL,
m
25 october, mon
mon2500:00+2nw711705 0.1 1022897
03:000nnw712777 0.1 1024754
06:00−1nnw612825 0.0 1026569
09:000nnw610749 0.0 1028677
12:00+3nnw57525 0.0 1030989
15:00+3nnw5648100 0.0 10301037
18:00+1nw23627 0.0 103167
21:000wnw23675 0.0 103243
26 october, tue
tue2600:00−1wsw34685 0.0 103274
03:00−1wsw37670 0.0 1032150
06:00−2sw497297 0.0 1031194
09:00+1sw5963100 0.0 1031293
12:00+5wsw684846 0.0 1029590
15:00+7wsw5946100 0.0 1028692
18:00+3sw41058100 0.0 1028214
21:00+3sw4115899 0.0 1028259
27 october, wed
wed2700:00+2sw4116176 0.0 1027232
03:00+1sw4116385 0.0 1027225
06:00+1sw5126389 0.0 1027230
09:00+3sw5135426 0.0 1026341
12:00+8sw711395 0.0 1025616
15:00+9sw711350 0.0 1023858
18:00+6sw614414 0.0 1023382
21:00+6wsw71547100 0.0 1022528
28 october, thu
thu2800:00+5wsw51262100 0.0 1022346
03:00+4wsw41074100 0.0 1022282
06:00+3wsw3786100 0.0 1023188
09:00+5wsw4882100 0.0 1023257
12:00+9wsw586262 0.0 1022570
15:00+10wsw6116197 0.0 1021659
18:00+8wsw61274100 0.2 1020638
21:00+8w51281100 0.6 1019570
29 october, fri
fri2900:00+8w51180100 0.2 1019564
03:00+8wnw4987100 0.4 1019506
06:00+8wnw499197 0.0 1021429
09:00+8nw3693100 0.0 1022269
12:00+9nnw2489100 0.2 1024229
15:00+10nne247948 0.3 1025572
18:00+9ene4680100 0.0 1027302
21:00+8e3683100 0.1 1029314